CAPE
2218 2373 2326 1926 1625 1614 1201 1418 1189 1026 724 635 600 547 589 441 422 397 329 251 199 213
2677 2523 2480 2199 2108 1595 1396 1316 1239 1237 835 234 163 536 693 739 697 778 718 585 469 345
3061 3034 2995 2693 2375 2002 1713 1284 776 697 497 130 246 422 1030 859 636 683 770 693 625 514
2997 3002 2971 2898 2614 2325 2180 1651 1246 702 458 7 136 813 1106 673 609 688 663 676 732 529
2329 2860 2934 2752 2458 2324 2257 1656 1575 1092 683 23 404 713 881 990 709 618 584 469 440 460
2116 2528 2550 2384 2204 2044 1812 1641 1408 1299 844 514 737 883 1030 808 776 868 751 597 359 233
1683 1592 1676 1925 1659 1646 1479 1433 1428 1224 1054 1201 1228 1180 1040 842 715 472 254 474 454 262
1027 963 1104 1033 1531 1376 1319 1403 1556 1571 1462 1275 1129 1008 793 731 512 311 35 278 465 439
285 358 496 712 790 1414 1637 1407 1214 934 801 650 490 541 570 265 73 0 83 86 119 170
103 181 259 258 401 374 503 1361 1357 1290 1354 1131 835 685 543 451 124 101 0 0 129 241
215 172 283 243 295 404 445 434 583 1325 1672 1663 1537 1412 1338 876 540 189 1 0 37 165
522 507 505 427 429 507 548 484 496 556 791 1102 1569 1899 1841 1178 890 709 185 0 6 133
496 825 949 801 766 719 590 623 685 716 594 477 486 714 1144 1131 837 834 748 2 0 86
614 651 566 685 737 713 729 774 676 590 511 457 444 367 266 231 578 917 1225 846 150 45
CIN
-112 -68 -40 -43 -53 -49 -103 -69 -68 -84 -127 -124 -115 -128 -93 -77 -89 -62 -44 -94 -98 -116
-32 -19 -42 -38 -22 -34 -48 -49 -72 -43 -57 -53 -32 -107 -112 -74 -66 -41 -36 -40 -50 -61
-33 -27 -21 -16 -23 -25 -29 -34 -26 -95 -20 -38 -99 -37 -69 -37 -49 -64 -53 -48 -53 -65
-19 -24 -36 -32 -29 -14 -11 -13 -17 -23 -63 -336 -251 -124 -59 -21 -40 -63 -52 -41 -26 -37
-53 -29 -30 -6 -39 -37 -11 -23 -30 -38 -28 -409 -187 -162 -82 -24 -85 -48 -18 -59 -35 -27
-35 -16 -24 -24 -16 -25 -26 -30 -38 -28 -19 -59 -66 -59 -39 -33 -53 -24 -17 -14 -23 -35
-36 -48 -55 -37 -27 -46 -47 -33 -29 -33 -60 -65 -24 -41 -39 -40 -35 -24 -89 -46 -27 -20
-56 -44 -54 -50 -24 -42 -28 -52 -43 -38 -32 -48 -42 -44 -50 -48 -59 -56 -63 -81 -29 -20
-49 -46 -47 -27 -25 -49 -27 -24 -18 -31 -27 -42 -132 -51 -47 -60 -86 -4 -176 -107 -78 -82
-112 -131 -107 -118 -110 -69 -93 -53 -32 -21 -12 -15 -24 -16 -41 -55 -79 -51 0 0 -179 -139
-75 -110 -91 -80 -106 -94 -62 -58 -88 -47 -21 -11 -8 -15 -18 -33 -60 -72 -16 0 -245 -225
-29 -38 -53 -35 -60 -65 -68 -66 -59 -46 -64 -36 -24 -9 -10 -15 -30 -46 -107 0 -69 -243
-79 -67 -31 -37 -33 -27 -38 -50 -47 -32 -36 -57 -82 -53 -19 -23 -41 -30 -51 -15 -10 -256
-48 -27 -63 -49 -38 -51 -52 -47 -53 -52 -47 -37 -47 -85 -112 -114 -32 -28 -19 -39 -94 -112
Wind_Speed
22 21 21 22 19 19 19 18 21 17 14 14 14 9 7 9 12 9 12 17 17 20
21 22 18 25 22 17 21 18 20 16 15 21 16 9 12 11 13 14 12 17 15 16
27 23 22 24 26 23 23 18 20 29 35 23 9 11 14 20 13 15 13 16 15 18
32 29 23 25 27 23 26 26 24 35 47 nan 2 3 14 26 9 16 19 20 20 18
32 31 27 26 27 29 28 27 29 32 34 nan 20 10 12 23 19 14 20 24 22 20
36 34 31 27 29 31 32 30 28 27 30 23 20 18 23 25 25 15 20 27 25 18
41 39 35 34 31 32 34 34 33 33 30 27 27 33 32 36 27 20 24 24 23 19
44 43 42 43 42 40 39 41 36 37 35 32 34 39 35 33 30 22 nan 24 26 26
47 47 47 47 46 47 47 46 42 39 38 38 36 42 36 33 nan nan nan nan 30 35
45 45 46 47 47 46 46 47 42 39 41 37 37 40 35 32 35 31 nan nan 34 38
32 37 41 41 39 40 40 39 38 37 40 41 39 37 32 31 33 31 nan nan nan 32
34 33 37 40 39 38 40 37 34 34 34 38 41 37 30 34 30 28 25 nan nan 33
39 39 35 33 34 35 34 31 30 28 31 32 33 38 33 32 30 27 27 nan nan nan
33 32 32 31 35 33 32 33 31 30 31 32 33 33 33 34 31 27 27 23 19 nan
Wind_Direction
351 346 344 345 345 339 339 338 330 333 319 307 289 286 282 262 254 243 205 202 212 215
348 343 336 326 329 331 323 327 323 323 279 226 191 234 259 247 252 245 250 212 217 220
338 334 324 311 311 313 314 310 307 288 271 204 179 210 238 238 220 255 239 222 219 212
319 318 312 302 302 302 300 302 298 298 306 nan 330 224 263 273 250 241 254 240 227 223
308 303 302 291 286 285 292 286 296 300 308 nan 326 255 258 283 278 252 251 261 251 224
279 284 283 281 279 279 279 281 281 276 285 296 302 278 268 279 277 283 254 255 259 218
277 273 271 278 268 267 276 277 280 276 273 271 269 274 274 275 285 291 272 258 262 248
277 273 271 265 265 264 262 265 268 268 267 269 271 270 279 278 284 279 nan 276 263 255
281 276 272 270 266 262 262 261 263 262 263 266 268 277 282 280 nan nan nan nan 271 260
284 280 277 274 272 270 268 268 263 257 258 260 266 277 279 281 274 274 nan nan 270 264
274 276 278 276 275 275 274 271 271 267 260 258 258 269 278 281 270 270 nan nan nan 243
286 278 276 273 274 271 271 271 270 270 269 265 261 261 264 271 271 268 260 nan nan 261
288 283 279 274 271 270 269 270 272 273 272 268 262 265 268 266 256 254 256 nan nan nan
285 285 282 275 265 262 264 267 270 273 272 272 269 262 263 267 258 251 246 246 251 nan